Regional Weather Roundup
Issued by NWS Bismarck, ND

Home | Current Version | Previous Version | Text Only | Print | Product List | Glossary On
Versions: 1 2 3 4 5 6 7 8 9 10 11 12 13 14 15 16 17 18 19 20 21 22 23 24 25 26 27 28 29 30 31 32 33 34 35 36 37 38 39 40 41 42 43 44 45 46 47 48 49 50
000
ASUS43 KBIS 230710
RWRBIS

NWR BROADCAST TEXT
NATIONAL WEATHER SERVICE BISMARCK ND
200 AM CDT SAT MAY 23 2015

NOTE: "FAIR" INDICATES FEW OR NO CLOUDS BELOW 12,000 FEET WITH NO
SIGNIFICANT WEATHER AND/OR OBSTRUCTIONS TO VISIBILITY.


CITY           SKY/WX    TMP DP  RH WIND       PRES   REMARKS
WILLISTON      PTCLDY    57  38  48 S3        30.09R
MINOT          MOCLDY    60  40  47 SW6       30.10R
MINOT AFB      MOCLDY    55  42  63 S5        30.09R
BISMARCK       CLEAR     50  41  71 E3        30.13R
DICKINSON      PTCLDY    43  35  73 S8        30.09R
GARRISON         N/A     53  40  61 CALM      30.12R
HETTINGER ARPT PTCLDY    44  38  79 SE7       30.10S
JAMESTOWN      MOCLDY    54  41  61 S7        30.12S
BEACH          FAIR      46  37  71 SE9       30.08S
CARRINGTON     FAIR      50  41  71 S10       30.14R
CROSBY         FAIR      54  39  58 S8        30.10R
HARVEY         FAIR      55  41  58 S8        30.12S
HAZEN          FAIR      46  39  76 CALM      30.12S
LINTON         FAIR      46  45  93 E3        30.15S
MANDAN         FAIR      52  39  62 S9        30.14R
OAKES            N/A     54  46  76 SW10      30.17R
STANLEY        FAIR      48  39  71 CALM      30.13R
WATFORD CITY   FAIR      50  34  53 SE10      30.08S
$$

CITY           SKY/WX    TMP DP  RH WIND       PRES   REMARKS
GRAND FORKS    CLEAR     54  42  64 SE6       30.12S
GRAND FORKS AF CLEAR     49  42  76 SW5       30.13R
DEVILS LAKE    CLEAR     54  43  66 CALM      30.12S
FARGO          CLEAR     55  38  52 S10       30.14R
CANDO          FAIR      46  39  76 S5        30.12S
CAVALIER       FAIR      55  43  62 SW5       30.11S
GRAFTON        FAIR      54  48  82 SW3       30.13R
LANGDON        FAIR      48  37  66 S9        30.13S
ROLLA          FAIR      50  34  53 SW5       30.14R
WALHALLA       FAIR      57  36  44 SW7       30.11S
$$

CITY           SKY/WX    TMP DP  RH WIND       PRES   REMARKS
ABERDEEN       PTCLDY    47  42  83 S5        30.19R
MOBRIDGE       PTCLDY    50  45  83 S7        30.12S
BUFFALO          N/A     44  39  82 SE12      30.00F
RAPID CITY     CLOUDY    48  44  86 S12       30.06F
GLASGOW        CLOUDY    58  42  55 E10       30.01R
SIDNEY         PTCLDY    52  37  58 CALM      30.08R
WOLF POINT     CLOUDY    57  42  57 NE10      30.04R
GLENDIVE       PTCLDY    54  37  54 SE8       30.06S
MILES CITY     MOCLDY    56  41  57 SE15      30.00R
BAKER          PTCLDY    46  39  76 SE9       30.06S
$$

CITY           SKY/WX    TMP DP  RH WIND       PRES   REMARKS
BILLINGS       PTCLDY    51  45  79 NE6       29.95S
GREAT FALLS    CLOUDY    55  42  61 E18G28    29.98S
ESTEVAN        PTCLDY    52  41  66 S7        30.09S
$$




USA.gov is the U.S. government's official web portal to all federal, state and local government web resources and services.